Regional Weather Roundup
Issued by NWS

Home | Current Version | Previous Version | Text Only | Print | Product List | Glossary Off
Versions: 1 2 3 4 5 6 7 8 9 10 11 12 13 14 15 16 17 18 19 20 21 22 23 24 25 26 27 28 29 30 31 32 33 34 35 36 37 38 39 40 41 42 43 44 45 46 47 48 49 50

000
ASUS45 KSLC 020710
RWRUT

UTAH REGIONAL WEATHER ROUNDUP
NATIONAL WEATHER SERVICE SALT LAKE CITY UT
100 AM MDT THU JUL 02 2015

UTZ001>011-023>025-020800-

NORTHERN UTAH

CITY           SKY/WX    TMP DP  RH WIND       PRES   REMARKS
HILL AFB       MOCLDY    76  49  38 E12       30.07S
LOGAN          CLEAR     74  45  35 SE6       30.06R
OGDEN          MOCLDY    76  49  38 S7        30.04S
PROVO AIRPORT  CLOUDY    73  55  53 CALM      30.06S
SALT LAKE CITY CLOUDY    82  57  42 S5        30.01F
VERNAL         MOCLDY    71  48  43 CALM      30.09S
WENDOVER       CLOUDY    86  45  23 S5        30.05S
WEST JORDAN    CLEAR     77  48  36 CALM      30.07S

$$

UTZ012>022-026-027-020800-

SOUTHERN/CENTRAL UTAH

CITY           SKY/WX    TMP DP  RH WIND       PRES   REMARKS
BRYCE CANYON   CLOUDY    60  49  66 W9        30.36R
CEDAR CITY     CLOUDY    77  48  35 VRB5      30.18R
MILFORD        CLOUDY    79  47  32 SW6       30.09R
MOAB/CYNLANDS  CLEAR     81  47  30 SW3       29.98R
PRICE          CLOUDY    78  42  27 NW6       30.14S
ST GEORGE      PTSUNNY   84  59  42 S10       30.00R THUNDER
KANAB          CLOUDY    73  64  73 SW5       30.21F

$$

REGIONAL REPORTS     COLORADO/ARIZONA

CITY           SKY/WX    TMP DP  RH WIND       PRES   REMARKS
CRAIG, CO      PTCLDY    66  48  52 CALM      30.17S
GRAND JUNCTION MOCLDY    75  52  44 NE5       30.01S
RIFLE          PTCLDY    71  50  47 CALM      30.11R
MONTROSE       CLOUDY    76  49  38 SE8       30.13R
CORTEZ         PTCLDY    78  46  32 S12       30.15R
PAGE, AZ       CLOUDY    86  47  25 NW10G18   30.03F
GRAND CANYON   CLOUDY    63  60  90 CALM      30.28R
KINGMAN        LGT RAIN  79  55  43 E5        30.06R
FLAGSTAFF      LGT RAIN  60  58  92 N6        30.35R

$$

REGIONAL REPORTS    NEVADA/IDAHO/WYOMING

CITY           SKY/WX    TMP DP  RH WIND       PRES   REMARKS
LAS VEGAS, NV  CLOUDY    93  57  29 W8        29.84R HX  91
ELY            CLOUDY    69  54  58 SE3       30.32R
ELKO           PTCLDY    75  50  41 VRB6      30.18R
POCATELLO, ID  CLEAR     80  42  25 SW14      30.03R
BURLEY         PTCLDY    67  52  58 S6        30.01R
EVANSTON, WY   MOCLDY    66  41  40 CALM      30.28S
ROCK SPRINGS   PTCLDY    66  48  52 N9        30.23R

$$


USA.gov is the U.S. government's official web portal to all federal, state and local government web resources and services.